Dashboard

GC7XB7R - 17# De Blauwbloezen

by Expie

published: Wed, 12 Sep 2018 8:04:00 am

Certitude Solution



Puzzle stats
127 Woo-Hoo!
15 D'Oh!
Latest activity:
Wed, 19 Sep 2018
Note that some of those attempts may have been anonymous.



You can subscribe to an RSS feed for:
 this puzzle
 Expie's puzzles
 puzzles in N50 E004 quadrangle
 puzzles in Vlaams-Brabant
 all puzzles

Your geocaching name is unknown, please sign in to identify yourself. How does it work?

Puzzle solvers, you can certify your solution here:
Show solution 
Show attempts 

(keyword required)
  Stay anonymous

Certified solvers

RankUserTime (Brussels, Europe)
1.DwiggerWed, 12 Sep 2018 8:26:49 am
2.BriSan.Wed, 12 Sep 2018 8:34:28 am
3.KamaSnurkaWed, 12 Sep 2018 8:35:24 am
4.KoidreamWed, 12 Sep 2018 8:44:46 am
5.dirk007Wed, 12 Sep 2018 8:45:21 am
6.metkerrekeWed, 12 Sep 2018 9:04:08 am
7.soyoyastWed, 12 Sep 2018 9:13:54 am
8.team fredstromWed, 12 Sep 2018 10:09:29 am
9.GeroMinosWed, 12 Sep 2018 10:19:30 am
10.Hannah_NWed, 12 Sep 2018 10:36:25 am
11.brestWed, 12 Sep 2018 10:43:37 am
12.JoanyoWed, 12 Sep 2018 10:48:03 am
13.EveRan2013Wed, 12 Sep 2018 10:55:59 am
14.johnny lightningWed, 12 Sep 2018 11:02:21 am
15.JeankeMotarWed, 12 Sep 2018 11:34:08 am
16.HuntingBWed, 12 Sep 2018 11:55:03 am
17.kadeekesWed, 12 Sep 2018 12:16:58 pm
18.Christelle & FionaWed, 12 Sep 2018 12:48:42 pm
19.krisalninWed, 12 Sep 2018 12:57:22 pm
20.Sabbi17Wed, 12 Sep 2018 1:07:14 pm
21.The CloudWed, 12 Sep 2018 1:14:23 pm
22.LiaIneWed, 12 Sep 2018 1:58:31 pm
23.badmintonnersWed, 12 Sep 2018 2:06:34 pm
24.rickrichWed, 12 Sep 2018 2:24:46 pm
25.lifraWed, 12 Sep 2018 2:29:57 pm
26.Edine4geoWed, 12 Sep 2018 2:31:48 pm
27.egelshofWed, 12 Sep 2018 2:34:57 pm
28.Bruintje.de.beerWed, 12 Sep 2018 2:40:52 pm
29.willy boy1Wed, 12 Sep 2018 3:01:36 pm
30.wandeltrakkerWed, 12 Sep 2018 3:43:19 pm
31.heksemie anirca62Wed, 12 Sep 2018 5:00:21 pm
32.sponskenWed, 12 Sep 2018 5:29:25 pm
33.de vliegenvangersWed, 12 Sep 2018 6:08:21 pm
34.snollebollekesWed, 12 Sep 2018 6:35:16 pm
35.daniella&julienWed, 12 Sep 2018 6:49:20 pm
36.prins6Wed, 12 Sep 2018 7:50:54 pm
37.KHU1Wed, 12 Sep 2018 7:54:05 pm
38.lowie49Wed, 12 Sep 2018 8:04:46 pm
39.VOSPAMAWed, 12 Sep 2018 8:10:24 pm
40.de smileyWed, 12 Sep 2018 8:47:39 pm
41.TORRAXWed, 12 Sep 2018 9:07:15 pm
42.yves2806Wed, 12 Sep 2018 9:28:45 pm
43.ErannWed, 12 Sep 2018 10:11:22 pm
44.rommarWed, 12 Sep 2018 10:33:23 pm
45.tfxerWed, 12 Sep 2018 10:38:13 pm
46.LuintoSTWed, 12 Sep 2018 10:53:37 pm
47.Stylo & JoskeWed, 12 Sep 2018 11:18:07 pm
48.OGTariWed, 12 Sep 2018 11:50:13 pm
49.machpatWed, 12 Sep 2018 11:51:48 pm
50.weba25Wed, 12 Sep 2018 11:56:12 pm
51.Joske0304699Thu, 13 Sep 2018 12:02:34 am
52.haka1Thu, 13 Sep 2018 6:59:26 am
53.Tonmar47Thu, 13 Sep 2018 9:10:44 am
54.johannemieThu, 13 Sep 2018 9:36:54 am
55.ZwuzzeThu, 13 Sep 2018 11:46:43 am
56.Ricky50Thu, 13 Sep 2018 12:20:53 pm
57.timmy2730Thu, 13 Sep 2018 2:12:41 pm
58.R_JThu, 13 Sep 2018 4:03:17 pm
59.mikee67Thu, 13 Sep 2018 5:13:53 pm
60.HEYTSEThu, 13 Sep 2018 8:14:36 pm
61.KnokkertjeThu, 13 Sep 2018 10:01:57 pm
62.GeellukamajaThu, 13 Sep 2018 10:08:58 pm
63.Scallie73Thu, 13 Sep 2018 10:35:23 pm
64.maguy15Thu, 13 Sep 2018 10:43:08 pm
65.tinrafFri, 14 Sep 2018 3:14:02 pm
66.akelaindeweerFri, 14 Sep 2018 4:50:21 pm
67.kato3Fri, 14 Sep 2018 6:55:39 pm
68.liliremFri, 14 Sep 2018 7:18:47 pm
69.Dine =)Fri, 14 Sep 2018 9:11:46 pm
70.TeamYarDieFri, 14 Sep 2018 10:26:41 pm
71.casiswaryaFri, 14 Sep 2018 10:55:44 pm
72.sweetjoeSat, 15 Sep 2018 3:57:20 pm
73.famandusSat, 15 Sep 2018 4:01:05 pm
74.2donickySat, 15 Sep 2018 5:08:39 pm
75.tesslooSat, 15 Sep 2018 5:32:39 pm
76.golodhSat, 15 Sep 2018 9:49:58 pm
77.DenDulleSat, 15 Sep 2018 11:23:56 pm
78.DEN TROLSun, 16 Sep 2018 1:54:14 pm
79.veromekeMon, 17 Sep 2018 8:45:26 am
80.CrapionMon, 17 Sep 2018 9:31:33 am
81.lankatrasMon, 17 Sep 2018 2:58:47 pm
82.tripper13Mon, 17 Sep 2018 4:17:51 pm
83.KLUPPELMon, 17 Sep 2018 6:12:52 pm
84.fravanoMon, 17 Sep 2018 9:13:16 pm
85.BergheboyMon, 17 Sep 2018 9:40:51 pm
86.Veerle TTue, 18 Sep 2018 12:28:38 am
87.tismooizoTue, 18 Sep 2018 12:00:23 pm
88.PtitmamanNeroBelgiumTue, 18 Sep 2018 1:01:15 pm
89.geo_bartendanielleTue, 18 Sep 2018 3:24:20 pm
90.homeboyTue, 18 Sep 2018 5:36:19 pm
91.AladaubeTue, 18 Sep 2018 5:47:30 pm
92.De woesten en SmurfelTue, 18 Sep 2018 7:46:32 pm
93.tigerententeamTue, 18 Sep 2018 10:17:03 pm
94.Team_Griml0rdTue, 18 Sep 2018 10:31:58 pm
95.RudyDCWed, 19 Sep 2018 12:25:24 am